Location: Carrières
(48.9495°N, 2.0407°E)
Time: 18:39:18
(UTC+00:00)

SR - Pass Details

Date: 23 April 2024
Orbit: 579 x 860 km, 66.7° (Epoch: 22 May)

Event Time Altitude Azimuth Distance (km) Brightness Sun altitude
Exits shadow 02:20:21 26° 270° (W) 1,483 ? -20.0°
Maximum altitude 02:22:33 37° 316° (NW) 1,157 ? -19.8°
Drops below altitude 10° 02:27:12 10° 24° (NNE) 2,187 ? -19.3°
Sets 02:29:37 0° 33° (NNE) 3,060 ? -19.1°
